sat.trackr.live / text

‹ back to catalog

GPS BIIF-5 (PRN 30)

NORAD 39533 · 2014-008A

PAYLOAD ACTIVE UNKNOWN

§ Identity

Operator
Country
US
Launch date
2014-02-21
Launch site
AFETR
Launch vehicle
Mass (kg)
RCS (m²)
19.94

Purposes: earth_obs, nav

External: N2YO · Heavens-Above · Gunter

§ Orbital elements

Epoch: 2026-05-24T06:03:53.138304Z

Period
718.00 min
Inclination
53.6504°
Eccentricity
0.0084157
Mean motion
2.00558262 rev/d
Perigee alt
19,959.2 km
Apogee alt
20,406.2 km
Semi-major
26,560.8 km
B*
0.0000e+0
RAAN
150.2958°
Arg perigee
230.8468°
Mean anomaly
128.4269°
Rev number
8,920

§ Raw data

GPS BIIF-5  (PRN 30)1 39533U 14008A   26144.25269836  .00000082  00000+0  00000+0 0  99922 39533  53.6504 150.2958 0084157 230.8468 128.4269  2.00558262 89205

JSON: /api/v1/satellites/39533 · /tle

For live sub-satellite position, see the globe view (requires WebGL).

§ Visibility from observer

Set your observer location to see the next 7 days of passes ≥ 10°. The values pass through the URL so the page stays shareable.

No JS? Fill the form by hand. The geolocation button needs JavaScript.